Weather History for Kenai, AK

Change the Weather History Date:

Wednesday, January 29, 2014

  Actual Average Record
Temperature  
Mean Temperature 32 °F -  
Max Temperature 34 °F 22 °F 44 °F (2007)
Min Temperature 30 °F 5 °F -40 °F (1989)
Degree Days  
Heating Degree Days 33    
Moisture  
Dew Point 28 °F    
Average Humidity 84    
Maximum Humidity 92    
Minimum Humidity 67    
Precipitation  
Precipitation 0.00 in - - ()
Sea Level Pressure  
Sea Level Pressure 30.08 in    
Wind  
Wind Speed 8 mph (NNE)    
Max Wind Speed 12 mph    
Max Gust Speed -    
Visibility 10 miles    
Events      
Averages and records for this station are not official NWS values.
T = Trace of Precipitation, MM = Missing Value Source: NWS Daily Summary

Daily Weather History Graph

Daily Weather History Graph

Search for Another Location

Airport:

Trip Planner

Search our weather history database for the weather conditions in past years. The results will help you decide how hot, cold, wet, or windy it might be!

Date:

Astronomy

Jan. 29, 2014 Rise Set
Actual Time 9:28 AM AKST 5:08 PM AKST
Civil Twilight 8:39 AM AKST 5:58 PM AKST
Nautical Twilight 7:46 AM AKST 6:50 PM AKST
Astronomical Twilight 6:57 AM AKST 7:40 PM AKST
Moon 8:14 AM AKST (1/29) 4:23 PM AKST (1/29)
Length of Visible Light 9h 18m
Length of Day
7h 40m
Waning Crescent, 2% of the Moon is Illuminated
Jan 29
Waning Crescent
Jan 30
New
Feb 6
First Quarter
Feb 14
Full
Feb 22
Last Quarter

Hourly Weather History & Observations

Time (AKST) Temp. Windchill Dew Point Humidity Pressure Visibility Wind Dir Wind Speed Gust Speed Precip Events Conditions
12:53 AM 34.0 °F 28.0 °F 24.1 °F 67% 30.01 in 10.0 mi ENE 6.9 mph - N/A   Clear
1:53 AM 33.1 °F 26.9 °F 24.1 °F 70% 30.03 in 10.0 mi ENE 6.9 mph - N/A   Clear
3:53 AM 33.1 °F 26.1 °F 27.0 °F 78% 30.02 in 10.0 mi NE 8.1 mph - N/A   Overcast
4:53 AM 33.1 °F 26.1 °F 27.0 °F 78% 30.02 in 10.0 mi NNE 8.1 mph - N/A   Mostly Cloudy
5:53 AM 32.0 °F 24.2 °F 27.0 °F 82% 30.03 in 10.0 mi NNE 9.2 mph - N/A   Clear
6:53 AM 32.0 °F 23.6 °F 28.0 °F 85% 30.03 in 10.0 mi NE 10.4 mph - N/A   Clear
7:53 AM 30.9 °F 23.5 °F 28.0 °F 89% 30.04 in 10.0 mi NNE 8.1 mph - N/A   Clear
8:53 AM 30.9 °F 22.8 °F 28.0 °F 89% 30.04 in 10.0 mi NNE 9.2 mph - N/A   Overcast
9:53 AM 30.9 °F 22.8 °F 28.0 °F 89% 30.05 in 10.0 mi NNE 9.2 mph - N/A   Mostly Cloudy
10:53 AM 30.9 °F 22.8 °F 28.9 °F 92% 30.06 in 10.0 mi NNE 9.2 mph - N/A   Overcast
11:53 AM 32.0 °F 23.6 °F 28.9 °F 88% 30.07 in 10.0 mi NNE 10.4 mph - N/A   Overcast
12:53 PM 33.1 °F 25.5 °F 28.9 °F 85% 30.08 in 10.0 mi NNE 9.2 mph - N/A   Overcast
1:53 PM 33.1 °F 26.1 °F 28.9 °F 85% 30.08 in 10.0 mi NNE 8.1 mph - N/A   Overcast
2:53 PM 34.0 °F 27.2 °F 30.0 °F 85% 30.08 in 10.0 mi NNE 8.1 mph - N/A   Overcast
3:53 PM 33.1 °F 24.9 °F 30.0 °F 89% 30.09 in 10.0 mi North 10.4 mph - N/A   Overcast
4:53 PM 33.1 °F 25.5 °F 30.0 °F 89% 30.10 in 10.0 mi NNE 9.2 mph - N/A   Overcast
5:53 PM 32.0 °F 24.2 °F 30.0 °F 92% 30.11 in 10.0 mi North 9.2 mph - N/A   Overcast
6:53 PM 32.0 °F 24.2 °F 28.0 °F 85% 30.12 in 10.0 mi NNE 9.2 mph - N/A   Mostly Cloudy
7:53 PM 32.0 °F 23.0 °F 28.0 °F 85% 30.12 in 10.0 mi NNE 11.5 mph - N/A   Mostly Cloudy
8:53 PM 32.0 °F 24.2 °F 28.0 °F 85% 30.12 in 10.0 mi NNE 9.2 mph - N/A   Mostly Cloudy
9:53 PM 32.0 °F 25.6 °F 28.0 °F 85% 30.13 in 10.0 mi NE 6.9 mph - N/A   Overcast
10:53 PM 32.0 °F 24.8 °F 27.0 °F 82% 30.14 in 10.0 mi NE 8.1 mph - N/A   Overcast
11:53 PM 32.0 °F 26.4 °F 28.0 °F 85% 30.16 in 10.0 mi NE 5.8 mph - N/A   Overcast